Find STARLINK-37844

NORAD ID: 799501205 Int'l Des: 2026-161A Constellation: starlink operational

当前视图

正在加载3D地球...

About STARLINK-37844

STARLINK-37844 (NORAD 799501205) is a starlink constellation satellite launched Jul 14, 2026

关于 STARLINK-37844

正在加载描述...

即将过境

Passes for default location (London). Set your location on the main map for personalized predictions.

高度历史

Loading altitude history...

两行轨道根数

1 99999C 2026161A 26195.65812500 .00000111 00000-0 119950-7 0 1956
2 99999 53.1644 325.4678 0009354 279.5733 258.1103 16.09042228 17
Epoch: Jul 14, 2026 • Age: 7 hours